[[[{"header":{"parameterUnit":"kt","parameterCategory":2,"dx":1,"dy":1,"la1":30.253999710083008,"la2":30.299108505249023,"lo1":-89.0895004272461,"lo2":-89.04439544677734,"nx":28,"ny":28,"refTime":"2022-10-23T21:00:00:Z","depth":0,"parameterNumber":1,"parameterNumberName":"U-component_of_WINDS"},"data":[-3.7458,-3.753,-3.7567,-3.7668,-3.7719,-3.7796,-3.7835,-3.7892,-3.7946,-3.8045,-3.8109,-3.8157,-3.8229,-3.8318,-3.8391,-3.8412,-3.844,-3.8438,-3.8462,-3.8433,-3.8432,-3.843,-3.8414,-3.8444,-3.8444,-3.8486,-3.8487,-3.8487,-3.7435,-3.7485,-3.7549,-3.7636,-3.7692,-3.7717,-3.779,-3.7836,-3.7905,-3.7973,-3.8038,-3.8129,-3.8207,-3.8282,-3.8364,-3.8402,-3.8419,-3.8422,-3.8419,-3.843,-3.84,-3.8382,-3.8406,-3.8406,-3.8406,-3.8406,-3.8406,-3.8406,-3.7403,-3.7445,-3.7518,-3.7589,-3.7644,-3.7703,-3.7751,-3.7807,-3.7872,-3.7959,-3.7994,-3.8073,-3.8151,-3.827,-3.832,-3.8386,-3.839,-3.8406,-3.8409,-3.8412,-3.8409,-3.8342,-3.8402,-3.8402,-3.8402,-3.8402,-3.8402,0,-3.7391,-3.7419,-3.7482,-3.7557,-3.7611,-3.7674,-3.7738,-3.7769,-3.7844,-3.7895,-3.7973,-3.8024,-3.8128,-3.8207,-3.8294,-3.8343,-3.8375,-3.8383,-3.8394,-3.8377,-3.8351,-3.8365,-3.8314,-3.8381,-3.8381,-3.8381,-3.8381,-3.8381,-3.736,-3.7405,-3.7501,-3.754,-3.7584,-3.7648,-3.7695,-3.7758,-3.7804,-3.7895,-3.793,-3.801,-3.8076,-3.8198,-3.8265,-3.8344,-3.836,-3.8381,-3.8372,-3.8355,-3.836,-3.8356,-3.8361,-3.8381,-3.8381,-3.8381,-3.8381,0,-3.734,-3.74,-3.7481,-3.7572,-3.7597,-3.7641,-3.7721,-3.7767,-3.7817,-3.7888,-3.7908,-3.7987,-3.8064,-3.8128,-3.823,-3.8262,-3.8341,-3.8355,-3.8314,-3.832,-3.8345,-3.8341,-3.8416,-3.8429,-3.8399,-3.84,-3.84,0,-3.7337,-3.7394,-3.748,-3.7524,-3.759,-3.765,-3.7715,-3.7764,-3.7829,-3.7886,-3.7931,-3.7984,-3.8058,-3.8121,-3.8168,-3.8244,-3.8264,-3.8292,-3.8304,-3.8287,-3.8283,-3.8312,-3.831,-3.8329,-3.8328,-3.8328,-3.8328,0,-3.7297,-3.741,-3.7482,-3.7518,-3.762,-3.7654,-3.7699,-3.7772,-3.7818,-3.7887,-3.7918,-3.7996,-3.8038,-3.8099,-3.8157,-3.8149,-3.8252,-3.8253,-3.8281,-3.828,-3.8299,-3.8296,-3.8348,-3.8327,-3.8327,-3.8327,-3.8327,0,-3.7304,-3.7369,-3.7464,-3.7551,-3.7578,-3.7627,-3.7705,-3.7761,-3.7836,-3.7867,-3.7923,-3.7961,-3.8032,-3.8028,-3.8128,-3.8099,-3.814,-3.8174,-3.8177,-3.8185,-3.8178,-3.8196,-3.824,-3.8247,-3.8197,-3.8196,-3.8195,0,-3.7241,-3.7353,-3.7404,-3.7494,-3.7554,-3.7599,-3.7655,-3.7718,-3.7765,-3.7825,-3.7878,-3.7946,-3.7956,-3.7986,-3.8028,-3.8085,-3.8122,-3.8082,-3.817,-3.8172,-3.8146,-3.8188,-3.8177,-3.8224,-3.8182,-3.8183,-3.8184,0,-3.72,-3.7321,-3.7333,-3.7376,-3.7468,-3.7519,-3.7583,-3.7662,-3.7699,-3.7766,-3.7822,-3.792,-3.7932,-3.7981,-3.8019,-3.8059,-3.8099,-3.8066,-3.8069,-3.8069,-3.8181,-3.817,-3.8177,-3.8117,-3.8118,-3.812,-3.8174,0,-3.7194,-3.7257,-3.7293,-3.7384,-3.7434,-3.7493,-3.7557,-3.7601,-3.7632,-3.7679,-3.7762,-3.7832,-3.7914,-3.794,-3.7971,-3.8041,-3.8039,-3.805,-3.8049,-3.8076,-3.8095,-3.8103,-3.8015,-3.8015,-3.8015,-3.8016,0,0,-3.7119,-3.721,-3.7263,-3.7325,-3.7369,-3.7413,-3.7471,-3.7521,-3.7618,-3.7649,-3.7649,-3.7796,-3.7852,-3.7947,-3.796,-3.7994,-3.8013,-3.8,-3.8063,-3.8068,-3.8072,-3.8092,-3.8099,-3.8016,-3.8016,-3.8016,-3.8016,0,-3.7129,-3.7181,-3.7237,-3.7289,-3.7368,-3.7414,-3.7428,-3.7515,-3.7547,-3.7628,-3.7664,-3.7722,-3.7837,-3.7892,-3.7936,-3.7991,-3.8015,-3.8012,-3.8018,-3.8063,-3.8068,-3.8072,-3.8092,-3.8098,-3.8017,-3.8017,-3.8017,0,-3.7098,-3.7161,-3.7194,-3.7295,-3.7347,-3.7408,-3.7423,-3.7486,-3.7533,-3.7579,-3.7658,-3.7706,-3.7785,-3.7865,-3.7904,-3.7905,-3.8013,-3.7991,-3.7991,-3.7996,-3.8043,-3.8048,-3.8053,-3.7989,-3.7989,-3.7988,0,0,-3.7098,-3.7157,-3.7243,-3.7302,-3.7332,-3.7401,-3.744,-3.7473,-3.7541,-3.7568,-3.7629,-3.7696,-3.7764,-3.7807,-3.7874,-3.7953,-3.7975,-3.7984,-3.7986,-3.7987,-3.7992,-3.8039,-3.8044,-3.7987,-3.7987,-3.7987,0,0,-3.7099,-3.7199,-3.7217,-3.7293,-3.7356,-3.7445,-3.748,-3.7505,-3.7571,-3.7571,-3.7633,-3.7653,-3.773,-3.7775,-3.7748,-3.7875,-3.7872,-3.788,-3.7842,-3.7844,-3.7846,-3.7832,-3.7772,0,0,0,0,0,-3.714,-3.7187,-3.7202,-3.7224,-3.7352,-3.7437,-3.7454,-3.7504,-3.7501,-3.7528,-3.7583,-3.7606,-3.7773,-3.7751,-3.7773,-3.7802,-3.7969,-3.7972,-3.7975,-3.7944,-3.7946,-3.7948,0,0,0,0,0,0,-3.715,-3.7176,-3.7201,-3.7291,-3.732,-3.7436,-3.7442,-3.7457,-3.75,-3.7503,-3.7594,-3.7609,-3.7655,-3.7743,-3.7763,-3.7788,-3.7766,-3.797,-3.7973,-3.7975,-3.7945,-3.7947,-3.7948,0,0,0,0,0,-3.7157,-3.7179,-3.7371,-3.7291,-3.7316,-3.7394,-3.744,-3.7453,-3.7487,-3.7572,-3.7586,-3.7521,-3.7654,-3.7674,-3.7755,-3.7778,-3.7753,-3.776,-3.7972,-3.7974,-3.7976,-3.7946,0,0,0,0,0,0,-3.7163,-3.7192,-3.7377,-3.7387,-3.7276,-3.7389,-3.7408,-3.7449,-3.7554,-3.7569,-3.7501,-3.7502,-3.7654,-3.767,-3.7685,-3.7772,-3.7742,-3.775,-3.7754,-3.7973,-3.7975,-3.7977,0,0,0,0,0,0,-3.7181,-3.72,-3.7382,-3.7361,-3.7368,-3.7384,-3.7401,-3.7477,-3.7555,-3.7478,-3.7483,-3.75,-3.7632,-3.7667,-3.7679,-3.7796,-3.7734,-3.7741,-3.7746,-3.7749,-3.7975,-3.7976,0,0,0,0,0,0,-3.719,-3.7206,-3.7358,-3.7364,-3.7371,-3.7485,-3.7453,-3.7582,-3.7534,-3.7473,-3.7532,-3.7531,-3.7629,-3.7642,-3.7674,-3.7786,-3.7793,-3.7734,-3.7739,-3.7742,-3.7745,0,0,0,0,0,0,0,-3.7197,-3.7074,-3.7319,-3.7367,-3.7373,-3.7477,-3.748,-3.7482,-3.7534,-3.7533,-3.7532,-3.7531,-3.7695,-3.7703,-3.771,-3.7778,0,0,-3.7734,-3.7737,0,0,0,0,0,0,0,0,-3.7068,-3.7072,-3.7319,-3.7321,-3.7323,-3.7477,-3.748,-3.7482,-3.7534,-3.7533,-3.7532,-3.7531,-3.7697,-3.7703,-3.771,0,0,0,0,0,0,0,0,0,0,0,0,0,0,0,-3.7319,-3.7321,0,-3.7478,-3.748,-3.7481,-3.7534,-3.7533,-3.7532,-3.7532,-3.7699,-3.7704,-3.7709,0,0,0,0,0,0,0,0,0,0,0,0,0,0,0,0,0,0,0,0,0,0,0,0,0,0,0,0,0,0,0,0,0,0,0,0,0,0,0,0,0,0,0,0,0,0,0,0,0,0,0,0,0,0,0,0,0,0,0,0,0,0,0,0,0,0,0,0,0]}],[{"header":{"parameterUnit":"kt","parameterCategory":2,"dx":1,"dy":1,"la1":30.253999710083008,"la2":30.299108505249023,"lo1":-89.0895004272461,"lo2":-89.04439544677734,"nx":28,"ny":28,"refTime":"2022-10-23T21:00:00:Z","depth":0,"parameterNumber":2,"parameterNumberName":"V-component_of_WINDS"},"data":[7.7737,7.7867,7.792,7.8093,7.8169,7.8298,7.8361,7.8449,7.8532,7.8693,7.8796,7.8864,7.897,7.9107,7.9223,7.9252,7.93,7.9307,7.934,7.9252,7.9243,7.9235,7.9209,7.9315,7.9316,7.9427,7.9428,7.9429,7.7674,7.775,7.7855,7.7994,7.8086,7.8111,7.8223,7.83,7.8414,7.8517,7.862,7.8767,7.889,7.8996,7.9124,7.919,7.9211,7.9221,7.922,7.9238,7.9144,7.9115,7.9203,7.9203,7.9203,7.9203,7.9203,7.9203,7.7572,7.7647,7.7761,7.7876,7.796,7.8053,7.8134,7.8214,7.832,7.8457,7.85,7.8631,7.8746,7.8926,7.8999,7.9106,7.9104,7.9133,7.9142,7.915,7.9153,7.8995,7.9129,7.9129,7.9129,7.9129,7.9129,0,7.7516,7.7555,7.7658,7.7779,7.7866,7.7964,7.8064,7.8115,7.8216,7.8299,7.8424,7.8505,7.8666,7.8792,7.8923,7.8995,7.9032,7.9039,7.9061,7.9046,7.9017,7.904,7.889,7.9036,7.9035,7.9035,7.9035,7.9035,7.7422,7.7501,7.7644,7.7711,7.7778,7.7883,7.7957,7.8039,7.8115,7.825,7.8313,7.8438,7.8543,7.8734,7.883,7.8951,7.8971,7.9022,7.899,7.8972,7.898,7.8976,7.8988,7.9028,7.9029,7.903,7.903,0,7.7366,7.745,7.7589,7.7724,7.776,7.7839,7.7956,7.8033,7.8102,7.822,7.8252,7.8362,7.8483,7.857,7.8725,7.8768,7.8908,7.8921,7.887,7.888,7.8939,7.8934,7.9104,7.9133,7.9017,7.9018,7.9019,0,7.7322,7.7421,7.7543,7.7619,7.7733,7.7813,7.7925,7.7996,7.8093,7.8186,7.8239,7.8326,7.8423,7.8523,7.8585,7.8714,7.8741,7.8783,7.88,7.8782,7.8777,7.8827,7.8825,7.8826,7.8825,7.8824,7.8823,0,7.7229,7.7408,7.7531,7.7586,7.7739,7.7795,7.7862,7.7971,7.8043,7.8149,7.8197,7.8315,7.838,7.8472,7.8552,7.8527,7.8708,7.8691,7.8752,7.8751,7.8791,7.8788,7.8912,7.8822,7.8822,7.8821,7.8821,0,7.7208,7.7311,7.7474,7.7605,7.7649,7.7729,7.7851,7.7939,7.805,7.8094,7.8178,7.8225,7.8339,7.8317,7.8479,7.8425,7.8488,7.8537,7.8543,7.8563,7.8537,7.8602,7.8706,7.8724,7.8576,7.8574,7.8573,0,7.7081,7.7267,7.7337,7.7491,7.7589,7.7644,7.7735,7.7831,7.7897,7.7992,7.8065,7.8172,7.8173,7.8219,7.8286,7.8368,7.8437,7.836,7.8504,7.8508,7.8478,7.8574,7.857,7.8673,7.8547,7.855,7.8552,0,7.6994,7.7177,7.7199,7.7266,7.7404,7.7485,7.7588,7.7711,7.7771,7.787,7.7963,7.8111,7.8121,7.8195,7.8245,7.8311,7.8393,7.8311,7.8316,7.8328,7.854,7.8537,7.8554,7.8412,7.8416,7.8418,7.8532,0,7.6953,7.7055,7.7116,7.7259,7.7334,7.7433,7.7523,7.7592,7.7633,7.77,7.7833,7.7933,7.8059,7.8097,7.8137,7.8258,7.8253,7.826,7.8248,7.8307,7.8348,7.8364,7.8181,7.8181,7.8181,7.8181,0,0,7.6813,7.6961,7.7034,7.7136,7.7205,7.726,7.7358,7.7431,7.7578,7.7626,7.7619,7.7844,7.7925,7.8078,7.8104,7.8152,7.8184,7.8158,7.8277,7.8287,7.8297,7.8338,7.8353,7.8181,7.8181,7.8181,7.8181,0,7.6818,7.6895,7.699,7.7069,7.7189,7.7255,7.7277,7.7405,7.7453,7.7581,7.7627,7.7717,7.7892,7.7975,7.804,7.8141,7.8172,7.8172,7.8199,7.8275,7.8285,7.8294,7.8336,7.835,7.8182,7.8182,7.8182,0,7.6752,7.6845,7.6899,7.7055,7.7134,7.7232,7.7241,7.7343,7.7417,7.7473,7.76,7.7667,7.7783,7.7913,7.7974,7.797,7.8157,7.8111,7.8113,7.8123,7.8202,7.8214,7.8224,7.8085,7.8084,7.8084,0,0,7.6744,7.6837,7.6964,7.7063,7.7109,7.7208,7.7268,7.7315,7.7417,7.7457,7.7545,7.7643,7.7747,7.7814,7.7915,7.8043,7.8077,7.8096,7.81,7.8104,7.8115,7.8195,7.8206,7.8081,7.8081,7.8081,0,0,7.674,7.689,7.6913,7.7039,7.7133,7.7265,7.7323,7.7355,7.7455,7.7454,7.7538,7.7568,7.769,7.7755,7.7709,7.7913,7.7899,7.7912,7.7867,7.7874,7.7879,7.7863,7.7733,0,0,0,0,0,7.6791,7.6872,7.6891,7.6925,7.7122,7.7254,7.728,7.7351,7.7341,7.7386,7.7464,7.7491,7.7748,7.771,7.7743,7.7795,7.8047,7.8053,7.8059,7.8033,7.8039,7.8044,0,0,0,0,0,0,7.6805,7.6847,7.6889,7.7022,7.7067,7.7252,7.725,7.7272,7.7338,7.7341,7.7475,7.7495,7.7559,7.7697,7.7726,7.7774,7.7724,7.8049,7.8054,7.8059,7.8035,7.804,7.8044,0,0,0,0,0,7.6817,7.6851,7.7147,7.7022,7.7061,7.7175,7.7248,7.7266,7.7318,7.7439,7.746,7.7366,7.7558,7.7588,7.7715,7.7759,7.7704,7.7715,7.8053,7.8057,7.806,7.8037,0,0,0,0,0,0,7.6826,7.6869,7.7157,7.7171,7.6996,7.7166,7.7195,7.726,7.7414,7.7435,7.7334,7.7335,7.7559,7.7582,7.7604,7.775,7.7688,7.7699,7.7705,7.8056,7.8059,7.8062,0,0,0,0,0,0,7.6851,7.6881,7.7164,7.7128,7.7139,7.7158,7.7184,7.7301,7.7415,7.73,7.7305,7.7333,7.7526,7.7578,7.7596,7.7776,7.7676,7.7686,7.7693,7.7698,7.8058,7.8061,0,0,0,0,0,0,7.6865,7.6891,7.7125,7.7133,7.7143,7.7313,7.7263,7.7461,7.7382,7.7292,7.7377,7.7375,7.7521,7.754,7.7589,7.7762,7.7772,7.7676,7.7683,7.7688,7.7691,0,0,0,0,0,0,0,7.6876,7.6689,7.707,7.7138,7.7146,7.7307,7.7311,7.7315,7.7382,7.738,7.7378,7.7376,7.7617,7.7628,7.764,7.775,0,0,7.7675,7.768,0,0,0,0,0,0,0,0,7.668,7.6686,7.707,7.7073,7.7076,7.7307,7.7311,7.7314,7.7381,7.738,7.7378,7.7377,7.762,7.7629,7.7638,0,0,0,0,0,0,0,0,0,0,0,0,0,0,0,7.707,7.7073,0,7.7308,7.731,7.7313,7.7381,7.738,7.7378,7.7377,7.7622,7.763,7.7638,0,0,0,0,0,0,0,0,0,0,0,0,0,0,0,0,0,0,0,0,0,0,0,0,0,0,0,0,0,0,0,0,0,0,0,0,0,0,0,0,0,0,0,0,0,0,0,0,0,0,0,0,0,0,0,0,0,0,0,0,0,0,0,0,0,0,0,0,0]}]]]